Location: Unspecified
(52.1384°N, 8.6525°W)
Time: 18:20:04
(UTC+00:00)

N. Korean satellite - Pass Details

Date: 30 October 2020
Orbit: 453 x 503 km, 97.2° (Epoch: 04 December)

Event Time Altitude Azimuth Distance (km) Brightness Sun altitude
Rises 05:37:33 0° 21° (NNE) 2,485 10.4 -17.2°
Reaches altitude 10° 05:39:47 10° 33° (NNE) 1,603 9.6 -16.8°
Maximum altitude 05:42:50 29° 96° (E) 864 8.6 -16.4°
Drops below altitude 10° 05:45:51 10° 158° (SSE) 1,590 9.5 -15.9°
Sets 05:48:03 0° 170° (S) 2,461 10.3 -15.6°
